• In Austria
  • List of Countries
  • For 7 days
  • Water Temperature
  • Satellite Maps
  • Weather Map
  • News
  • Weather Widgets
  • user-avatar
    Login

    Hourly Weather Harare

    Today, 20 October, Friday

    Time Temperature Precipitation Wind Pressure Humidity
    00:00 +25°C° 0 mm 2 mps 640 mmHg 45%
    01:00 +24°C° 0 mm 2 mps 639 mmHg 46%
    02:00 +20°C° 0 mm 2 mps 639 mmHg 58%
    03:00 +20°C° 0 mm 2 mps 639 mmHg 59%
    04:00 +20°C° 0 mm 2 mps 639 mmHg 60%
    05:00 +20°C° 0 mm 2 mps 639 mmHg 60%
    06:00 +22°C° 0 mm 3 mps 640 mmHg 53%
    07:00 +26°C° 0 mm 3 mps 641 mmHg 45%
    08:00 +28°C° 0 mm 4 mps 642 mmHg 37%
    09:00 +30°C° 0 mm 4 mps 642 mmHg 31%
    10:00 +33°C° 0 mm 4 mps 642 mmHg 25%
    11:00 +36°C° 0 mm 3 mps 643 mmHg 20%
    12:00 +36°C° 0 mm 3 mps 642 mmHg 19%
    13:00 +36°C° 0 mm 3 mps 642 mmHg 18%
    14:00 +36°C° 0 mm 3 mps 641 mmHg 17%
    15:00 +35°C° 0 mm 3 mps 641 mmHg 18%
    16:00 +35°C° 0 mm 3 mps 641 mmHg 18%
    17:00 +34°C° 0 mm 3 mps 640 mmHg 19%
    18:00 +31°C° 0 mm 3 mps 641 mmHg 22%
    19:00 +30°C° 0 mm 3 mps 641 mmHg 24%
    20:00 +28°C° 0 mm 3 mps 641 mmHg 27%
    21:00 +28°C° 0 mm 3 mps 641 mmHg 29%
    22:00 +27°C° 0 mm 3 mps 641 mmHg 30%
    23:00 +26°C° 0 mm 3 mps 641 mmHg 32%

    Tomorrow, 21 October, Saturday

    Time Temperature Precipitation Wind Pressure Humidity
    00:00 +25°C° 0 mm 2 mps 641 mmHg 36%
    01:00 +24°C° 0 mm 2 mps 641 mmHg 40%
    02:00 +23°C° 0 mm 2 mps 640 mmHg 44%
    03:00 +23°C° 0 mm 2 mps 640 mmHg 50%
    04:00 +21°C° 0 mm 2 mps 640 mmHg 55%
    05:00 +20°C° 0 mm 2 mps 640 mmHg 60%
    06:00 +22°C° 0 mm 3 mps 641 mmHg 52%
    07:00 +26°C° 0 mm 4 mps 642 mmHg 44%
    08:00 +28°C° 0 mm 5 mps 643 mmHg 36%
    09:00 +30°C° 0 mm 5 mps 644 mmHg 30%
    10:00 +33°C° 0 mm 5 mps 644 mmHg 25%
    11:00 +35°C° 0 mm 5 mps 644 mmHg 19%
    12:00 +35°C° 0 mm 5 mps 644 mmHg 18%
    13:00 +35°C° 0 mm 5 mps 643 mmHg 18%
    14:00 +35°C° 0 mm 5 mps 642 mmHg 17%
    15:00 +34°C° 0 mm 5 mps 642 mmHg 19%
    16:00 +33°C° 0 mm 4 mps 642 mmHg 21%
    17:00 +32°C° 0 mm 4 mps 642 mmHg 22%
    18:00 +30°C° 0 mm 4 mps 642 mmHg 26%
    19:00 +29°C° 0 mm 4 mps 642 mmHg 29%
    20:00 +28°C° 0 mm 4 mps 643 mmHg 33%
    21:00 +26°C° 0 mm 4 mps 643 mmHg 40%
    22:00 +25°C° 0 mm 4 mps 643 mmHg 47%
    23:00 +22°C° 0 mm 4 mps 643 mmHg 54%

    Day after tomorrow, 22 October, Sunday

    Time Temperature Precipitation Wind Pressure Humidity
    00:00 +21°C° 0 mm 3 mps 642 mmHg 59%
    01:00 +20°C° 0 mm 3 mps 641 mmHg 63%
    02:00 +19°C° 0 mm 3 mps 641 mmHg 67%
    03:00 +19°C° 0 mm 3 mps 641 mmHg 69%
    04:00 +18°C° 0 mm 3 mps 641 mmHg 70%
    05:00 +18°C° 0 mm 3 mps 641 mmHg 71%
    06:00 +20°C° 0 mm 4 mps 642 mmHg 62%
    07:00 +21°C° 0 mm 4 mps 643 mmHg 53%
    08:00 +23°C° 0 mm 5 mps 644 mmHg 44%
    09:00 +26°C° 0 mm 5 mps 644 mmHg 38%
    10:00 +28°C° 0 mm 5 mps 644 mmHg 32%
    11:00 +32°C° 0 mm 5 mps 645 mmHg 27%
    12:00 +32°C° 0 mm 5 mps 644 mmHg 25%
    13:00 +33°C° 0 mm 4 mps 643 mmHg 24%
    14:00 +33°C° 0 mm 4 mps 642 mmHg 23%
    15:00 +32°C° 0 mm 4 mps 642 mmHg 26%
    16:00 +30°C° 0 mm 4 mps 641 mmHg 30%
    17:00 +28°C° 0 mm 4 mps 641 mmHg 33%
    18:00 +27°C° 0 mm 4 mps 641 mmHg 38%
    19:00 +26°C° 0 mm 3 mps 641 mmHg 43%
    20:00 +24°C° 0 mm 3 mps 642 mmHg 48%
    21:00 +22°C° 0 mm 3 mps 641 mmHg 53%
    22:00 +21°C° 0 mm 3 mps 641 mmHg 58%
    23:00 +20°C° 0 mm 3 mps 641 mmHg 63%

    23 October, Monday

    Time Temperature Precipitation Wind Pressure Humidity
    00:00 +20°C° 0 mm 2 mps 641 mmHg 65%
    01:00 +19°C° 0 mm 2 mps 640 mmHg 67%
    02:00 +18°C° 0 mm 2 mps 639 mmHg 69%
    03:00 +18°C° 0 mm 2 mps 639 mmHg 70%
    04:00 +17°C° 0 mm 2 mps 639 mmHg 71%
    05:00 +17°C° 0 mm 2 mps 639 mmHg 72%
    06:00 +19°C° 0 mm 3 mps 640 mmHg 62%
    07:00 +22°C° 0 mm 3 mps 641 mmHg 52%
    08:00 +25°C° 0 mm 4 mps 643 mmHg 41%
    09:00 +27°C° 0 mm 4 mps 643 mmHg 36%
    10:00 +29°C° 0 mm 4 mps 643 mmHg 30%
    11:00 +31°C° 0 mm 3 mps 643 mmHg 24%
    12:00 +33°C° 0 mm 3 mps 642 mmHg 22%
    13:00 +34°C° 0 mm 3 mps 642 mmHg 20%
    14:00 +35°C° 0 mm 3 mps 641 mmHg 18%
    15:00 +34°C° 0 mm 3 mps 641 mmHg 19%
    16:00 +33°C° 0 mm 3 mps 641 mmHg 20%
    17:00 +33°C° 0 mm 3 mps 640 mmHg 20%
    18:00 +29°C° 0 mm 3 mps 640 mmHg 24%
    19:00 +27°C° 0 mm 2 mps 640 mmHg 28%
    20:00 +25°C° 0 mm 2 mps 640 mmHg 31%
    21:00 +25°C° 0 mm 2 mps 640 mmHg 33%
    22:00 +24°C° 0 mm 2 mps 640 mmHg 36%
    23:00 +23°C° 0 mm 2 mps 640 mmHg 38%

    24 October, Tuesday

    Time Temperature Precipitation Wind Pressure Humidity
    00:00 +21°C° 0 mm 2 mps 640 mmHg 40%
    01:00 +20°C° 0 mm 2 mps 639 mmHg 43%
    02:00 +20°C° 0 mm 2 mps 639 mmHg 45%
    03:00 +19°C° 0 mm 2 mps 639 mmHg 47%
    04:00 +19°C° 0 mm 2 mps 639 mmHg 48%
    05:00 +18°C° 0 mm 2 mps 639 mmHg 49%
    06:00 +21°C° 0 mm 2 mps 640 mmHg 44%
    07:00 +24°C° 0 mm 3 mps 641 mmHg 39%
    08:00 +27°C° 0 mm 4 mps 642 mmHg 34%
    09:00 +29°C° 0 mm 3 mps 642 mmHg 29%
    10:00 +31°C° 0 mm 3 mps 642 mmHg 25%
    11:00 +34°C° 0 mm 3 mps 642 mmHg 21%
    12:00 +35°C° 0 mm 3 mps 642 mmHg 19%
    13:00 +36°C° 0 mm 2 mps 641 mmHg 17%
    14:00 +36°C° 0 mm 2 mps 640 mmHg 16%
    15:00 +36°C° 0 mm 2 mps 640 mmHg 16%
    16:00 +35°C° 0 mm 2 mps 640 mmHg 17%
    17:00 +34°C° 0 mm 2 mps 640 mmHg 18%
    18:00 +31°C° 0 mm 2 mps 640 mmHg 20%
    19:00 +29°C° 0 mm 2 mps 640 mmHg 22%
    20:00 +28°C° 0 mm 2 mps 640 mmHg 24%
    21:00 +27°C° 0 mm 2 mps 640 mmHg 26%
    22:00 +26°C° 0 mm 3 mps 640 mmHg 27%
    23:00 +25°C° 0 mm 3 mps 640 mmHg 29%

    25 October, Wednesday

    Time Temperature Precipitation Wind Pressure Humidity
    00:00 +24°C° 0 mm 3 mps 639 mmHg 31%
    01:00 +23°C° 0 mm 2 mps 639 mmHg 34%
    02:00 +21°C° 0 mm 2 mps 638 mmHg 36%
    03:00 +21°C° 0 mm 2 mps 638 mmHg 38%
    04:00 +20°C° 0 mm 2 mps 639 mmHg 39%
    05:00 +20°C° 0 mm 2 mps 639 mmHg 41%
    06:00 +22°C° 0 mm 3 mps 640 mmHg 37%
    07:00 +25°C° 0 mm 4 mps 640 mmHg 33%
    08:00 +28°C° 0 mm 4 mps 641 mmHg 29%
    09:00 +30°C° 0 mm 4 mps 641 mmHg 26%
    10:00 +33°C° 0 mm 3 mps 641 mmHg 22%
    11:00 +35°C° 0 mm 3 mps 641 mmHg 18%
    12:00 +36°C° 0 mm 3 mps 641 mmHg 17%
    13:00 +37°C° 0 mm 2 mps 640 mmHg 15%
    14:00 +38°C° 0 mm 2 mps 640 mmHg 14%
    15:00 +37°C° 0 mm 2 mps 640 mmHg 15%
    16:00 +36°C° 0 mm 3 mps 639 mmHg 15%
    17:00 +35°C° 0 mm 3 mps 639 mmHg 16%
    18:00 +33°C° 0 mm 3 mps 639 mmHg 18%
    19:00 +30°C° 0 mm 3 mps 639 mmHg 21%
    20:00 +28°C° 0 mm 2 mps 639 mmHg 23%
    21:00 +27°C° 0 mm 2 mps 639 mmHg 25%
    22:00 +27°C° 0 mm 2 mps 639 mmHg 26%
    23:00 +26°C° 0 mm 2 mps 639 mmHg 28%
    Show more